[[{"header":{"parameterUnit":"m.s-1","parameterCategory":1,"la1":30.2991,"la2":30.254,"lo1":-89.0895,"lo2":-89.0444,"dy":0.0017,"dx":0.0017,"nx":28,"ny":28,"refTime":"2025-05-27T03:00:00:Z","depth":0,"parameterNumber":2,"parameterNumberName":"U-component_of_WINDS"},"data":[0,0,0,0,0,0,0,0,0,0,0,0,0,0,0,0,0,0,0,0,0,0,0,0,0,0,0,0,0,0,0,0,0,0,0,0,0,0,0,0,0,0,0,0,0,0,0,0,0,0,0,0,0,0,0,0,0,0,0.7352,0.7354,0,0.7505,0.7507,0.7509,0.749,0.7487,0.7485,0.7482,0.7643,0.7649,0.7656,0,0,0,0,0,0,0,0,0,0,0,0,0,0.7048,0.7053,0.7352,0.7354,0.7356,0.7505,0.7507,0.7509,0.749,0.7487,0.7484,0.7481,0.7641,0.7649,0.7657,0,0,0,0,0,0,0,0,0,0,0,0,0,0.7188,0.7055,0.7352,0.7364,0.7367,0.7505,0.7507,0.751,0.7491,0.7487,0.7483,0.748,0.7638,0.7648,0.7658,0.7794,0,0,0.7688,0.7692,0,0,0,0,0,0,0,0,0.718,0.72,0.7361,0.7364,0.7367,0.7474,0.7459,0.7605,0.7492,0.7444,0.7482,0.7478,0.759,0.7604,0.7641,0.7801,0.7808,0.7689,0.7695,0.7699,0.7702,0,0,0,0,0,0,0,0.7171,0.7193,0.7413,0.7363,0.7367,0.7364,0.738,0.7486,0.7536,0.7448,0.7447,0.7465,0.7591,0.7631,0.7645,0.7811,0.7689,0.7697,0.7703,0.7707,0.8092,0.8096,0,0,0,0,0,0,0.7157,0.7185,0.7408,0.7417,0.7262,0.7372,0.739,0.7444,0.7535,0.7545,0.7468,0.7463,0.7616,0.7633,0.765,0.7816,0.7699,0.7708,0.7714,0.8088,0.8093,0.8098,0,0,0,0,0,0,0.7151,0.7177,0.7402,0.7301,0.7329,0.7381,0.7442,0.7449,0.7489,0.755,0.7559,0.7499,0.7614,0.7636,0.7758,0.7822,0.7713,0.7722,0.8083,0.809,0.8096,0.8149,0,0,0,0,0,0,0.7142,0.7175,0.7226,0.7302,0.7335,0.7506,0.7446,0.7454,0.7506,0.7501,0.7582,0.7592,0.7613,0.7744,0.7768,0.7833,0.773,0.8078,0.8086,0.8093,0.8142,0.8157,0.8169,0,0,0,0,0,0.7131,0.7236,0.7229,0.7256,0.74,0.751,0.7529,0.7549,0.7511,0.7563,0.7603,0.759,0.7811,0.7756,0.7784,0.7853,0.8074,0.8084,0.8093,0.8136,0.8154,0.8169,0,0,0,0,0,0,0.7167,0.7246,0.7239,0.7371,0.7434,0.7506,0.7573,0.7567,0.7643,0.7636,0.7659,0.7678,0.7801,0.7839,0.7777,0.799,0.7937,0.7953,0.7961,0.7978,0.7991,0.798,0.7738,0,0,0,0,0,0.719,0.7272,0.7337,0.7447,0.7479,0.7521,0.757,0.758,0.7646,0.7673,0.7722,0.7788,0.7872,0.7927,0.8008,0.8148,0.8166,0.8209,0.8223,0.8233,0.8247,0.8324,0.8345,0.8129,0.8129,0.8129,0,0,0.7239,0.7292,0.7342,0.7456,0.7506,0.7591,0.7543,0.7635,0.77,0.7688,0.7805,0.7844,0.7919,0.8051,0.8111,0.8086,0.831,0.8246,0.8254,0.8261,0.8336,0.8357,0.8375,0.8136,0.8135,0.8134,0,0,0.7371,0.742,0.7517,0.7568,0.7644,0.7671,0.7694,0.7768,0.7793,0.7911,0.7904,0.7982,0.8126,0.8181,0.8227,0.8382,0.8373,0.8408,0.8479,0.8554,0.8571,0.8586,0.8642,0.8662,0.8421,0.8421,0.8421,0,0.7423,0.755,0.7568,0.7662,0.7712,0.7705,0.7804,0.7853,0.7952,0.7988,0.7958,0.814,0.8191,0.8335,0.8373,0.8411,0.8439,0.8398,0.8567,0.8582,0.8597,0.865,0.8671,0.8425,0.8424,0.8424,0.8423,0,0.761,0.7698,0.7768,0.7863,0.7921,0.8018,0.8052,0.811,0.8115,0.8146,0.8268,0.8328,0.8421,0.8457,0.8463,0.8603,0.8585,0.8561,0.8508,0.8621,0.8672,0.8692,0.843,0.8429,0.8428,0.8427,0,0,0.7768,0.7872,0.7898,0.7941,0.8024,0.8094,0.8191,0.8281,0.833,0.8399,0.8481,0.8605,0.8583,0.8636,0.8649,0.8715,0.8835,0.8683,0.8686,0.871,0.8993,0.9011,0.9034,0.8829,0.8833,0.8836,0.8987,0,0.7909,0.8078,0.8098,0.825,0.8332,0.8327,0.8411,0.8473,0.8505,0.8581,0.8616,0.8703,0.8668,0.87,0.8765,0.8806,0.8892,0.8796,0.8907,0.8911,0.8888,0.906,0.9079,0.9218,0.9007,0.901,0.9013,0,0.8096,0.8169,0.8328,0.8401,0.8437,0.8512,0.8597,0.8669,0.8739,0.8758,0.8817,0.8822,0.8924,0.8867,0.9008,0.8942,0.8989,0.9016,0.9022,0.9034,0.8969,0.9077,0.9263,0.9284,0.9044,0.9042,0.9039,0,0.8196,0.8334,0.8448,0.8485,0.8573,0.8626,0.8665,0.8732,0.8785,0.886,0.8895,0.8981,0.9029,0.9096,0.9125,0.908,0.9265,0.921,0.9284,0.9283,0.9323,0.932,0.952,0.9353,0.9353,0.9352,0.9352,0,0.8351,0.8448,0.8494,0.8563,0.8674,0.8697,0.8805,0.8843,0.8902,0.898,0.8981,0.9055,0.9088,0.9168,0.9191,0.9305,0.9326,0.9345,0.935,0.9345,0.9343,0.9376,0.9367,0.9358,0.9357,0.9356,0.9355,0,0.848,0.8515,0.8638,0.8711,0.8732,0.881,0.8873,0.8942,0.8973,0.9072,0.9097,0.9147,0.924,0.9275,0.939,0.9405,0.9537,0.9534,0.9513,0.9514,0.9587,0.958,0.9815,0.9848,0.9659,0.9661,0.9663,0,0.8577,0.8652,0.8733,0.8785,0.8826,0.891,0.8964,0.8991,0.9048,0.9134,0.9192,0.9285,0.9361,0.9511,0.9558,0.9646,0.9645,0.9722,0.9659,0.9651,0.9647,0.9642,0.965,0.9734,0.9736,0.9737,0.9738,0,0.8745,0.8758,0.8836,0.892,0.8985,0.9053,0.9119,0.9162,0.9199,0.9263,0.9358,0.9417,0.9533,0.9626,0.9716,0.9759,0.9756,0.9758,0.978,0.9775,0.976,0.977,0.9545,0.9752,0.9751,0.975,0.9749,0.9749,0.8861,0.8928,0.8996,0.9083,0.9135,0.9197,0.9265,0.9305,0.9385,0.9481,0.9492,0.9595,0.9665,0.9785,0.9832,0.9913,0.9893,0.9924,0.9933,0.994,0.9945,0.9747,0.993,0.993,0.9929,0.9929,0.9929,0,0.9029,0.9073,0.9152,0.9245,0.9314,0.9304,0.9377,0.9436,0.9525,0.959,0.9665,0.9775,0.9865,0.992,1.0011,1.0066,1.0067,1.0089,1.0085,1.0095,0.9958,0.993,1.0087,1.0087,1.0086,1.0086,1.0086,1.0086,0.9124,0.9237,0.9259,0.9398,0.9442,0.9541,0.9584,0.9642,0.9694,0.9816,0.9891,0.9926,0.9987,1.0083,1.0166,1.018,1.0214,1.0238,1.025,1.0121,1.0105,1.0089,1.0063,1.0245,1.0245,1.038,1.0381,1.0382]},{"header":{"parameterUnit":"m.s-1","parameterCategory":1,"la1":30.2991,"la2":30.254,"lo1":-89.0895,"lo2":-89.0444,"dy":0.0017,"dx":0.0017,"nx":28,"ny":28,"refTime":"2025-05-27T03:00:00:Z","depth":0,"parameterNumber":3,"parameterNumberName":"V-component_of_WINDS"},"data":[0,0,0,0,0,0,0,0,0,0,0,0,0,0,0,0,0,0,0,0,0,0,0,0,0,0,0,0,0,0,0,0,0,0,0,0,0,0,0,0,0,0,0,0,0,0,0,0,0,0,0,0,0,0,0,0,0,0,4.3114,4.3116,0,4.3349,4.3352,4.3354,4.3363,4.336,4.3357,4.3354,4.3589,4.3597,4.3606,0,0,0,0,0,0,0,0,0,0,0,0,0,4.2664,4.2672,4.3113,4.3116,4.3119,4.3349,4.3352,4.3355,4.3363,4.336,4.3356,4.3353,4.3586,4.3596,4.3607,0,0,0,0,0,0,0,0,0,0,0,0,0,4.2875,4.2675,4.3113,4.3151,4.3157,4.3348,4.3352,4.3356,4.3364,4.336,4.3355,4.3352,4.3582,4.3595,4.3608,4.3775,0,0,4.3649,4.3655,0,0,0,0,0,0,0,0,4.2863,4.2891,4.3143,4.3149,4.3156,4.3322,4.3279,4.3496,4.3365,4.3285,4.3354,4.3349,4.3503,4.3523,4.3576,4.3786,4.3796,4.365,4.3658,4.3664,4.3668,0,0,0,0,0,0,0,4.2848,4.2881,4.3206,4.3146,4.3154,4.3154,4.318,4.332,4.3415,4.3292,4.3293,4.3321,4.3506,4.3563,4.3581,4.3799,4.365,4.3662,4.367,4.3675,4.4155,4.416,0,0,0,0,0,0,4.2827,4.2869,4.3199,4.3213,4.2996,4.3166,4.3194,4.3273,4.3413,4.3431,4.3324,4.3321,4.3542,4.3566,4.359,4.3793,4.3664,4.3676,4.3684,4.4151,4.4156,4.4162,0,0,0,0,0,0,4.2817,4.2856,4.3189,4.3042,4.3084,4.3178,4.3266,4.328,4.3337,4.3438,4.3454,4.3366,4.354,4.3571,4.3729,4.3801,4.3682,4.3694,4.4145,4.4152,4.4159,4.4201,0,0,0,0,0,0,4.2804,4.2853,4.2919,4.3043,4.3092,4.3327,4.3271,4.3288,4.3361,4.3358,4.3481,4.3498,4.3539,4.3709,4.3742,4.3817,4.3705,4.4139,4.4148,4.4157,4.4194,4.4209,4.4222,0,0,0,0,0,4.2788,4.292,4.2922,4.2962,4.3177,4.3331,4.3359,4.3406,4.3367,4.3433,4.3497,4.3494,4.3788,4.3725,4.3762,4.3843,4.4134,4.4146,4.4156,4.4187,4.4206,4.4221,0,0,0,0,0,0,4.28,4.2937,4.2941,4.3118,4.3213,4.3333,4.3417,4.3424,4.3531,4.3524,4.3575,4.3603,4.3759,4.3817,4.3744,4.401,4.3956,4.3975,4.3967,4.3986,4.3999,4.3982,4.3716,0,0,0,0,0,4.2824,4.294,4.3053,4.3197,4.3245,4.3323,4.3392,4.342,4.352,4.3559,4.3636,4.3731,4.3844,4.3918,4.4028,4.4201,4.4227,4.4275,4.4289,4.43,4.4315,4.4409,4.4431,4.4197,4.4197,4.4197,0,0,4.2873,4.2962,4.3032,4.3202,4.3279,4.3396,4.3357,4.3482,4.3569,4.3578,4.3732,4.3791,4.39,4.4066,4.4143,4.4119,4.4386,4.4314,4.4322,4.4331,4.4423,4.4445,4.4464,4.4204,4.4203,4.4202,0,0,4.3022,4.3102,4.3231,4.331,4.3428,4.3478,4.3509,4.3628,4.3668,4.3824,4.3833,4.3934,4.413,4.4207,4.4271,4.4448,4.4448,4.4482,4.4556,4.4647,4.4665,4.4682,4.4744,4.4766,4.4497,4.4498,4.4498,0,4.3068,4.3247,4.3296,4.3423,4.3496,4.3511,4.3641,4.3713,4.386,4.3909,4.388,4.4125,4.4199,4.4383,4.4426,4.4478,4.4513,4.4469,4.4659,4.4676,4.4692,4.4752,4.4775,4.4501,4.4501,4.45,4.45,0,4.3297,4.342,4.351,4.3654,4.3737,4.3864,4.393,4.4008,4.4028,4.4081,4.4237,4.4327,4.4456,4.4501,4.4521,4.4687,4.4668,4.4649,4.4596,4.4717,4.4774,4.4797,4.4506,4.4504,4.4503,4.4503,0,0,4.3461,4.363,4.3662,4.3727,4.3857,4.3953,4.4079,4.4206,4.4271,4.4371,4.4477,4.4641,4.4624,4.4697,4.4725,4.4806,4.4938,4.4776,4.4779,4.4802,4.5124,4.5138,4.5164,4.4939,4.4943,4.4947,4.5115,0,4.3624,4.3853,4.39,4.4096,4.4209,4.4225,4.4334,4.4424,4.4477,4.4578,4.4635,4.475,4.4719,4.4763,4.4843,4.4905,4.5003,4.4894,4.5035,4.504,4.5008,4.5194,4.5209,4.5363,4.5137,4.5141,4.5144,0,4.3846,4.3953,4.4161,4.4276,4.4325,4.4423,4.4543,4.4641,4.4742,4.4774,4.4856,4.4875,4.5004,4.4945,4.5121,4.5046,4.5106,4.5145,4.5152,4.5167,4.5099,4.5213,4.5414,4.5437,4.5179,4.5177,4.5174,0,4.3944,4.414,4.429,4.4345,4.4482,4.4551,4.461,4.4708,4.4781,4.4884,4.4932,4.5048,4.5111,4.5199,4.5248,4.5201,4.5421,4.5366,4.5449,4.5448,4.5495,4.5491,4.5708,4.5534,4.5534,4.5533,4.5533,0,4.4121,4.4248,4.4336,4.4428,4.4569,4.4621,4.4758,4.4817,4.4903,4.5005,4.5024,4.5118,4.5177,4.5279,4.5318,4.5457,4.5486,4.5514,4.5522,4.5512,4.5509,4.5552,4.5543,4.554,4.5538,4.5537,4.5536,0,4.4255,4.432,4.4484,4.46,4.4632,4.4731,4.483,4.4918,4.497,4.5098,4.5131,4.5211,4.5332,4.539,4.5539,4.5565,4.5723,4.5724,4.5689,4.5693,4.5772,4.5764,4.6024,4.606,4.5863,4.5865,4.5866,0,4.4364,4.4462,4.459,4.466,4.4722,4.4836,4.491,4.4964,4.504,4.5162,4.5235,4.5357,4.5458,4.565,4.572,4.5833,4.5837,4.5921,4.5854,4.584,4.5838,4.5831,4.584,4.5932,4.5934,4.5936,4.5937,0,4.4551,4.4578,4.4686,4.4806,4.4895,4.4991,4.5086,4.5141,4.5209,4.5294,4.5419,4.5497,4.5649,4.5769,4.5888,4.5946,4.5952,4.5957,4.5983,4.5973,4.5949,4.5962,4.5721,4.5951,4.595,4.5949,4.5948,4.5948,4.4676,4.4763,4.4866,4.4986,4.5063,4.515,4.5239,4.5302,4.5408,4.5538,4.5562,4.5694,4.579,4.595,4.6012,4.6114,4.6095,4.6131,4.6141,4.6149,4.6153,4.5932,4.6136,4.6135,4.6135,4.6135,4.6134,0,4.4862,4.4929,4.5039,4.5171,4.5265,4.5265,4.5368,4.5446,4.5563,4.5653,4.5752,4.5894,4.601,4.6089,4.6206,4.6272,4.6278,4.6301,4.6297,4.631,4.6164,4.613,4.6295,4.6294,4.6294,4.6294,4.6294,4.6294,4.4971,4.5118,4.5157,4.5341,4.5407,4.5539,4.5597,4.5677,4.575,4.5908,4.6006,4.6057,4.6142,4.6265,4.637,4.639,4.6432,4.6456,4.6475,4.6337,4.632,4.6304,4.6273,4.6464,4.6465,4.6612,4.6613,4.6614]}]]